Погода в Мане

Россия / Красноярский край     54°57′25″N   93°57′15″E
темп.,
°C
ветер,
м/с
пор.,
м/с
влажн.,
%
обл.,
%
осадки,
мм/ч
давл.,
гПа
погр.,
м
14 мая, пт
пт1401:00+3ююв227398 0.0 101523
04:00+2ю226214 0.0 101531
07:00+7ююз245685 0.0 1014113
10:00+14юз3531100 0.0 10111290
13:00+16зюз5731100 0.0 10102709
16:00+11сз5772100 0.7 10111329
19:00+5ююз258999 8.8 1017464
22:00+4зсз269052 0.8 1020632
15 мая, сб
сб1501:00+1ююз2395100 0.9 102249
04:00+1ююз31089100 0.0 1022284
07:00+5юз41168100 0.0 1021917
10:00+9юз7125947 0.0 10201152
13:00+7юз71275100 0.4 10201088
16:00+9юз61370100 0.1 10191136
19:00+10юз41175100 0.4 1018922
22:00+8ююз41379100 0.0 1018700
16 мая, вс
вс1601:00+9ююз51473100 0.0 1016691
04:00+8зюз51388100 2.4 10151127
07:00+9юз31088100 6.0 1016621
10:00+9ююз3987100 0.2 1015530
13:00+11ююз4108299 0.4 1013875
16:00+13ююз6107679 0.1 1010996
19:00+11ююз51580100 0.4 1006944
22:00+10юз2893100 6.3 1008308
17 мая, пн
пн1701:00+7ссв2398100 7.4 1010267
04:00+6ссв1299100 0.0 1011252
07:00+5св1297100 0.1 1012362
10:00+6с2293100 0.1 1014511
13:00+7ссз2288100 0.1 1015569
16:00+7ссз1281100 0.1 1015639
19:00+7юз1183100 0.1 101586
22:00+5ююз2289100 0.0 101651
18 мая, вт
вт1801:00+5зюз1190100 0.0 101524
04:00+5юз1191100 0.1 101326
07:00+5ююв1196100 2.5 101262
10:00+6юв1396100 2.9 1008152
13:00+7вюв1198100 8.9 100696
16:00+7с1299100 4.2 1006141
19:00+6ссз1299100 4.4 1007100
22:00+5ссв1299100 0.0 1008103